Погода в Гавре

Франция     49˚30′27″N   0˚08′17″E
темп.,
°C
ветер,
м/с
пор.,
м/с
влажн.,
%
обл.,
%
осадки,
мм/ч
давл.,
гПа
погр.,
м
5 декабря, сб
сб501:00+4˚ю368449 0.1 988247
04:00+3˚ю598440 0.0 988392
07:00+3˚ююв5118061 0.0 989520
10:00+4˚юв61375100 0.0 989606
13:00+6˚юв71276100 0.0 989817
16:00+4˚юв71291100 1.5 989699
19:00+5˚вюв61189100 3.3 990457
22:00+5˚вюв4791100 0.3 993384
6 декабря, вс
вс601:00+5˚юв379199 0.6 994297
04:00+5˚вюв2389100 0.0 995188
07:00+5˚в4691100 0.1 996303
10:00+4˚всв479168 0.3 998285
13:00+5˚св358784 2.5 999353
16:00+6˚св248465 0.0 1000356
19:00+4˚ссв249271 0.1 1000160
22:00+4˚св138965 0.0 1001104
7 декабря, пн
пн701:00+4˚всв118967 0.0 100133
04:00+4˚ююз128995 0.0 100046
07:00+4˚юз249363 0.1 1000122
10:00+6˚ююз238692 0.8 999147
13:00+6˚юз358496 1.4 999358
16:00+6˚ю357963 0.4 999410
19:00+5˚ю358533 0.6 999223
22:00+4˚ю248276 0.1 1000198
8 декабря, вт
вт801:00+4˚ююз128088 0.3 1001164
04:00+4˚юз228799 0.1 100287
07:00+5˚ююз348599 0.5 1004262
10:00+5˚ссв2586100 1.8 1006479
13:00+6˚юз017498 1.9 1007283
16:00+6˚сз236645 0.0 1008369
19:00+5˚ю127338 0.1 100944
22:00+5˚ююз248465 0.1 1010156
9 декабря, ср
ср901:00+4˚ююз248140 0.1 101192
04:00+5˚ююз3581100 0.1 1012224
07:00+5˚ююз359089 0.3 1012156
10:00+6˚юз228097 0.2 101366
13:00+7˚юз477989 0.6 1012515
16:00+8˚зюз3667100 0.3 1011721
19:00+6˚ююз4782100 0.3 1010405
22:00+6˚ю5108396 0.3 1008685